Location: アルンシュタイン
(50.0000°N, 10.0000°E)
Time: 19:41:57
(UTC+02:00)

Courier 1B Rocket - All Passes

Search period start: 11 September 2024 00:00
Search period end: 21 September 2024 00:00
Orbit: 920 x 1201 km, 28.2° (Epoch: 10 September)

Date Brightness Start Highest point End Pass type
(mag) Time Alt. Az. Time Alt. Az. Time Alt. Az.
11 Sep - 20:23:21 10° SSW 20:26:23 13° S 20:29:28 10° SSE visible
11 Sep - 22:17:24 10° SSW 22:18:27 10° SSW 22:19:32 10° S visible
12 Sep - 19:23:08 10° SSW 19:25:34 12° S 19:28:03 10° SSE daylight
12 Sep - 21:15:15 10° SSW 21:17:37 12° S 21:20:02 10° S visible
13 Sep - 18:24:17 10° S 18:24:48 10° SSE 18:25:19 10° SSE daylight
13 Sep - 20:14:07 10° SSW 20:16:47 12° S 20:19:32 10° SSE visible
14 Sep - 19:13:30 10° SSW 19:15:59 12° S 19:18:31 10° SSE daylight
15 Sep - 18:13:32 10° S 18:15:13 11° S 18:16:55 10° SSE daylight
15 Sep - 20:05:35 10° SSW 20:07:13 11° S 20:08:52 10° S visible
16 Sep - 19:04:27 10° SSW 19:06:25 11° S 19:08:26 10° SSE daylight
17 Sep - 18:03:59 10° SSW 18:05:40 11° S 18:07:22 10° SSE daylight
19 Sep - 17:55:25 10° S 17:56:08 10° S 17:56:51 10° S daylight
